Погода в Эхингене

Германия     48°16′58″N   9°43′45″E
темп.,
°C
ветер,
м/с
пор.,
м/с
влажн.,
%
обл.,
%
осадки,
мм/ч
давл.,
гПа
погр.,
м
18 мая, вт
вт1823:00+7зюз6138478 0.0 1014564
02:00+6юз6149477 0.0 1016517
05:00+7юз7138934 0.2 1015702
08:00+8юз6990100 0.3 1017742
11:00+7зюз4795100 1.6 1017878
14:00+11з577380 2.2 10161419
17:00+11зсз577480 1.6 10151185
20:00+8сз3585100 1.8 1016160
19 мая, ср
ср1923:00+4з229215 0.0 101924
02:00+3зюз349597 0.1 102070
05:00+5зюз3895100 0.5 1019196
08:00+7зюз479060 0.6 1020367
11:00+11з467119 1.0 10191328
14:00+12з456778 3.1 10171479
17:00+12зсз346897 2.4 10171233
20:00+8з368799 4.6 1019147
20 мая, чт
чт2023:00+6зюз3795100 2.2 1021230
02:00+5юз499696 2.5 1021307
05:00+5юз4998100 0.4 1022382
08:00+6зюз5795100 1.4 1023858
11:00+8з468756 0.4 1024691
14:00+12з457197 1.6 10231478
17:00+12з137499 0.6 1023698
20:00+10ююв22807 0.8 102313
21 мая, пт
пт2123:00+6юз1286100 0.0 102311
02:00+5ююз1187100 0.0 102211
05:00+5ююз2287100 0.0 102012
08:00+8юз2583100 0.0 1018178
11:00+13ююз4769100 0.0 1015557
14:00+17юз51059100 0.0 10121629
17:00+18юз6116385 0.0 10091297
20:00+13сз368496 0.3 1009190
22 мая, сб
сб2223:00+10в339292 0.3 100860
02:00+9зсз2296100 0.6 100720
05:00+8зсз81293100 11.7 1010751
08:00+8ююз5995100 14.2 1010608
11:00+9зюз61188100 1.4 10111161
14:00+11юз7117576 2.0 10101329
17:00+14з71363100 0.9 10092139
20:00+10з511709 0.9 1011301